Tracking 35274 objects as of 12-Sep-2026
HD Live streaming from Space Station
objects crossing your sky now

STARLINK-2103

Track STARLINK-2103 now!
10-day predictions
STARLINK-2103 is classified as:


NORAD ID: 47383
Int'l Code: 2021-005AL
Launch date: January 20, 2021
Source: United States (US)
Launch site: AIR FORCE EASTERN TEST RANGE (AFETR)
Your satellite tracking list
Your tracking list is empty




NASA's NSSDC Master Catalog

Two Line Element Set (TLE):
1 47383U 21005AL  26254.61479781  .00061469  00000-0  13979-2 0  9992
2 47383  53.1534 224.2426 0001575  42.5536 317.5592 15.42433118312272
Source of the keplerian elements: AFSPC